Location: Stoke Bliss
(52.2667°N, 2.5167°W)
Time: 05:57:02
(UTC+00:00)

Meteor 1-19 Rocket - Visible Passes

Search period start: 13 June 2021 00:00
Search period end: 23 June 2021 00:00
Orbit: 808 x 927 km, 81.2° (Epoch: 12 June)

Date Brightness Start Highest point End Pass type
(mag) Time Alt. Az. Time Alt. Az. Time Alt. Az.
17 Jun 7.4 02:58:01 10° NNE 03:01:37 16° NE 03:05:14 10° E visible
18 Jun 7.4 02:51:02 10° NNE 02:54:42 16° NE 02:58:21 10° E visible
19 Jun 7.3 02:44:03 10° NNE 02:47:46 16° NE 02:51:29 10° E visible
20 Jun 7.3 02:37:05 10° NNE 02:40:50 17° NE 02:44:35 10° E visible
21 Jun 7.2 02:30:07 10° NNE 02:33:55 17° NE 02:37:42 10° E visible
22 Jun 7.2 02:23:09 10° NNE 02:26:59 17° NE 02:30:48 10° E visible
